Portada
METAR-TAF:

METAR-TAF

Aeroports :

Zabol, Iran

latitud: 31-20N, longitud: 061-29E, altitud: 489 m

Observació

L'informe es va fer fa 1 hora i 3 minuts, a les 19:00 UTC
Vent 29 kt del Nord amb ràfegues de 41 kt
Temperatura 23°C
Humitat 23%
Pressió 1007 hPa
Visibilitat: 7000 m

METAR: OIZB 221900Z 35029G41KT 7000 NSC 23/01 Q1007

Hora: 00:33 (20:03 UTC)


TAF: manca

Observacions i pronòstics meteorològics de més de 4000 aeroports (METAR i TAF).

Les estacions disponibles són els punts grocs i vermells al mapa.

Posi el ratolí al punt desitjat per veure el nom de l'estació.

Feu clic per veure les observacions i els pronòstics meteorològics.

Per canviar el mapa: feu clic els botons verds amb una creu de color negre per apropar; al botó verd amb un guió per allunyar la imatge; o en les fletxes verdes per a mapes adjacents.


METAR-TAF: